| time (UTC) | temp F | wind direction | speed MPH | gust MPH | rain 1hr in | rain 24hr in | rain mn in | humidity % | barometer mb |
| 20260904151529 | 59 | 171 | 6.0 | 11.0 | 0.00 | 0.00 | 0.00 | 73 | 997.0 |
| 20260904150528 | 59 | 170 | 5.0 | 9.0 | 0.00 | 0.00 | 0.00 | 73 | 997.0 |
| 20260904145527 | 58 | 188 | 6.0 | 10.0 | 0.00 | 0.00 | 0.00 | 72 | 997.1 |
| 20260904144526 | 58 | 182 | 6.0 | 10.0 | 0.00 | 0.00 | 0.00 | 69 | 997.1 |
| 20260904143525 | 59 | 182 | 6.0 | 11.0 | 0.00 | 0.00 | 0.00 | 66 | 997.1 |
| 20260904142625 | 60 | 177 | 5.0 | 10.0 | 0.00 | 0.00 | 0.00 | 68 | 997.1 |
| 20260904141544 | 62 | 173 | 3.0 | 6.0 | 0.00 | 0.00 | 0.00 | 60 | 997.1 |
| 20260904140522 | 62 | 278 | 2.0 | 4.0 | 0.00 | 0.00 | 0.00 | 57 | 997.2 |
| 20260904135521 | 63 | 273 | 2.0 | 5.0 | 0.00 | 0.00 | 0.00 | 54 | 997.2 |
| 20260904134520 | 63 | 319 | 1.0 | 4.0 | 0.00 | 0.00 | 0.00 | 55 | 997.2 |
| 20260904133519 | 63 | 32 | 2.0 | 4.0 | 0.00 | 0.00 | 0.00 | 53 | 997.2 |
| 20260904132520 | 62 | 21 | 2.0 | 4.0 | 0.00 | 0.00 | 0.00 | 59 | 997.3 |
| 20260904131538 | 61 | 344 | 3.0 | 6.0 | 0.00 | 0.00 | 0.00 | 60 | 997.4 |
| 20260904130519 | 61 | 329 | 3.0 | 6.0 | 0.00 | 0.00 | 0.00 | 63 | 997.5 |
| 20260904125517 | 59 | 344 | 2.0 | 3.0 | 0.00 | 0.00 | 0.00 | 68 | 997.5 |
| 20260904124546 | 59 | 20 | 1.0 | 3.0 | 0.00 | 0.00 | 0.00 | 72 | 997.6 |
| 20260904123545 | 58 | 289 | 3.0 | 6.0 | 0.00 | 0.00 | 0.00 | 74 | 997.7 |
| 20260904122545 | 58 | 288 | 4.0 | 9.0 | 0.00 | 0.00 | 0.00 | 71 | 997.8 |
| 20260904121603 | 58 | 300 | 5.0 | 10.0 | 0.00 | 0.00 | 0.00 | 69 | 997.8 |
| 20260904120543 | 58 | 330 | 6.0 | 10.0 | 0.00 | 0.00 | 0.00 | 69 | 997.8 |
| 20260904115602 | 59 | 348 | 7.0 | 12.0 | 0.00 | 0.00 | 0.00 | 65 | 997.7 |
| 20260904114541 | 60 | 346 | 8.0 | 15.0 | 0.00 | 0.00 | 0.00 | 62 | 997.7 |
| 20260904113600 | 62 | 339 | 4.0 | 11.0 | 0.00 | 0.00 | 0.00 | 54 | 997.6 |
| 20260904112539 | 62 | 8 | 5.0 | 7.0 | 0.00 | 0.00 | 0.00 | 53 | 997.5 |
| 20260904111537 | 63 | 334 | 4.0 | 6.0 | 0.00 | 0.00 | 0.00 | 52 | 997.5 |
| 20260904110537 | 62 | 307 | 4.0 | 6.0 | 0.00 | 0.00 | 0.00 | 51 | 997.5 |
| 20260904105556 | 64 | 283 | 4.0 | 8.0 | 0.00 | 0.00 | 0.00 | 49 | 997.6 |
| 20260904104535 | 64 | 269 | 4.0 | 8.0 | 0.00 | 0.00 | 0.00 | 50 | 997.6 |
| 20260904103554 | 65 | 12 | 3.0 | 6.0 | 0.00 | 0.00 | 0.00 | 50 | 997.7 |
| 20260904102533 | 64 | 35 | 4.0 | 7.0 | 0.00 | 0.00 | 0.00 | 52 | 997.7 |
| 20260904101612 | 63 | 339 | 3.0 | 7.0 | 0.00 | 0.00 | 0.00 | 52 | 997.7 |
| 20260904100531 | 63 | 300 | 3.0 | 7.0 | 0.00 | 0.00 | 0.00 | 50 | 997.8 |
| 20260904095530 | 63 | 280 | 4.0 | 7.0 | 0.00 | 0.00 | 0.00 | 51 | 997.8 |
| 20260904094528 | 63 | 302 | 4.0 | 7.0 | 0.00 | 0.00 | 0.00 | 54 | 998.0 |
| 20260904093528 | 62 | 221 | 3.0 | 6.0 | 0.00 | 0.00 | 0.00 | 58 | 998.1 |
| 20260904092527 | 63 | 77 | 3.0 | 6.0 | 0.00 | 0.00 | 0.00 | 55 | 998.2 |
| 20260904091526 | 64 | 89 | 3.0 | 8.0 | 0.00 | 0.00 | 0.00 | 55 | 998.2 |
| 20260904090524 | 63 | 112 | 4.0 | 8.0 | 0.00 | 0.00 | 0.00 | 60 | 998.3 |
| 20260904085524 | 63 | 78 | 2.0 | 6.0 | 0.00 | 0.00 | 0.00 | 57 | 998.3 |
| 20260904084522 | 63 | 138 | 3.0 | 6.0 | 0.00 | 0.00 | 0.00 | 58 | 998.3 |
| 20260904083541 | 63 | 57 | 2.0 | 6.0 | 0.00 | 0.00 | 0.00 | 60 | 998.3 |
| 20260904082521 | 62 | 215 | 3.0 | 6.0 | 0.00 | 0.00 | 0.00 | 61 | 998.3 |
| 20260904081519 | 62 | 135 | 3.0 | 6.0 | 0.00 | 0.00 | 0.00 | 65 | 998.3 |
| 20260904080519 | 61 | 119 | 4.0 | 7.0 | 0.00 | 0.00 | 0.00 | 65 | 998.4 |
| 20260904075518 | 60 | 118 | 3.0 | 7.0 | 0.00 | 0.00 | 0.00 | 72 | 998.4 |
| 20260904074517 | 59 | 113 | 3.0 | 6.0 | 0.00 | 0.00 | 0.00 | 74 | 998.5 |
| 20260904073547 | 59 | 121 | 4.0 | 6.0 | 0.00 | 0.00 | 0.00 | 79 | 998.5 |
| 20260904072545 | 58 | 123 | 4.0 | 7.0 | 0.00 | 0.00 | 0.00 | 87 | 998.6 |
| 20260904071604 | 57 | 117 | 4.0 | 7.0 | 0.00 | 0.00 | 0.00 | 89 | 998.7 |
| 20260904070543 | 57 | 133 | 4.0 | 5.0 | 0.00 | 0.00 | 0.00 | 90 | 998.7 |
| 20260904065542 | 55 | 131 | 4.0 | 5.0 | 0.00 | 0.00 | 0.00 | 92 | 998.8 |
| 20260904064620 | 56 | 128 | 3.0 | 5.0 | 0.00 | 0.00 | 0.00 | 93 | 999.0 |
| 20260904063559 | 55 | 126 | 4.0 | 6.0 | 0.00 | 0.00 | 0.00 | 97 | 999.0 |
| 20260904062538 | 54 | 126 | 3.0 | 5.0 | 0.00 | 0.00 | 0.00 | 98 | 999.0 |
| 20260904061540 | 53 | 122 | 3.0 | 5.0 | 0.00 | 0.00 | 0.00 | 99 | 999.1 |
| 20260904060538 | 52 | 121 | 3.0 | 5.0 | 0.00 | 0.00 | 0.00 | 99 | 999.2 |
| 20260904055538 | 52 | 118 | 3.0 | 6.0 | 0.00 | 0.00 | 0.00 | 99 | 999.2 |
| 20260904054556 | 51 | 116 | 4.0 | 6.0 | 0.00 | 0.00 | 0.00 | 99 | 999.2 |
| 20260904053534 | 50 | 116 | 4.0 | 5.0 | 0.00 | 0.00 | 0.00 | 99 | 999.2 |
| 20260904052532 | 49 | 112 | 4.0 | 6.0 | 0.00 | 0.00 | 0.00 | 98 | 999.3 |
| 20260904051531 | 49 | 115 | 4.0 | 6.0 | 0.00 | 0.00 | 0.00 | 98 | 999.3 |
| 20260904050533 | 49 | 112 | 4.0 | 5.0 | 0.00 | 0.00 | 0.00 | 99 | 999.3 |
| 20260904045531 | 49 | 115 | 4.0 | 6.0 | 0.00 | 0.00 | 0.00 | 98 | 999.4 |
| 20260904044551 | 49 | 118 | 4.0 | 6.0 | 0.00 | 0.00 | 0.00 | 98 | 999.5 |
| 20260904043531 | 49 | 130 | 4.0 | 6.0 | 0.00 | 0.00 | 0.00 | 98 | 999.7 |
| 20260904042528 | 50 | 125 | 2.0 | 4.0 | 0.00 | 0.00 | 0.00 | 98 | 999.8 |
| 20260904041527 | 49 | 117 | 3.0 | 5.0 | 0.00 | 0.00 | 0.00 | 98 | 999.9 |
| 20260904040527 | 49 | 125 | 3.0 | 5.0 | 0.00 | 0.00 | 0.00 | 98 | 1000.0 |
| 20260904035526 | 49 | 120 | 4.0 | 6.0 | 0.00 | 0.00 | 0.00 | 98 | 1000.2 |
| 20260904034524 | 49 | 121 | 4.0 | 6.0 | 0.00 | 0.00 | 0.00 | 98 | 1000.3 |
| 20260904033523 | 49 | 142 | 4.0 | 5.0 | 0.00 | 0.00 | 0.00 | 98 | 1000.4 |
| 20260904032522 | 50 | 152 | 4.0 | 7.0 | 0.00 | 0.00 | 0.00 | 97 | 1000.5 |
| 20260904031541 | 50 | 169 | 4.0 | 7.0 | 0.00 | 0.00 | 0.00 | 97 | 1000.6 |
| 20260904030519 | 50 | 168 | 4.0 | 7.0 | 0.00 | 0.00 | 0.00 | 97 | 1000.8 |
| 20260904025519 | 50 | 157 | 5.0 | 7.0 | 0.00 | 0.00 | 0.00 | 97 | 1000.8 |
| 20260904024520 | 50 | 155 | 4.0 | 7.0 | 0.00 | 0.00 | 0.00 | 97 | 1001.0 |
| 20260904023518 | 49 | 146 | 5.0 | 7.0 | 0.00 | 0.00 | 0.00 | 97 | 1001.1 |
| 20260904022517 | 51 | 170 | 5.0 | 9.0 | 0.00 | 0.00 | 0.00 | 96 | 1001.2 |
| 20260904021546 | 50 | 160 | 4.0 | 8.0 | 0.00 | 0.00 | 0.00 | 98 | 1001.2 |
| 20260904020544 | 50 | 151 | 5.0 | 7.0 | 0.00 | 0.00 | 0.00 | 98 | 1001.2 |
| 20260904015544 | 49 | 147 | 4.0 | 7.0 | 0.00 | 0.00 | 0.00 | 97 | 1001.3 |
| 20260904014543 | 49 | 145 | 4.0 | 7.0 | 0.00 | 0.00 | 0.00 | 97 | 1001.4 |
| 20260904013541 | 49 | 148 | 4.0 | 7.0 | 0.00 | 0.00 | 0.00 | 97 | 1001.5 |
| 20260904012541 | 49 | 155 | 5.0 | 8.0 | 0.00 | 0.00 | 0.00 | 97 | 1001.6 |
| 20260904011600 | 50 | 155 | 4.0 | 8.0 | 0.00 | 0.00 | 0.00 | 97 | 1001.7 |
| 20260904010539 | 50 | 153 | 4.0 | 7.0 | 0.00 | 0.00 | 0.00 | 97 | 1001.8 |
| 20260904005538 | 50 | 153 | 4.0 | 7.0 | 0.00 | 0.00 | 0.00 | 97 | 1001.9 |
| 20260904004536 | 49 | 152 | 5.0 | 7.0 | 0.00 | 0.00 | 0.00 | 97 | 1002.1 |
| 20260904003535 | 49 | 148 | 5.0 | 7.0 | 0.00 | 0.00 | 0.00 | 97 | 1002.2 |
| 20260904002554 | 50 | 168 | 4.0 | 7.0 | 0.00 | 0.00 | 0.00 | 95 | 1002.4 |
| 20260904001533 | 50 | 169 | 5.0 | 7.0 | 0.00 | 0.00 | 0.00 | 95 | 1002.5 |
| 20260904000532 | 50 | 178 | 5.0 | 9.0 | 0.00 | 0.00 | 0.00 | 94 | 1002.5 |
| 20260903235531 | 50 | 167 | 4.0 | 8.0 | 0.00 | 0.00 | 0.00 | 95 | 1002.5 |
| 20260903234532 | 50 | 167 | 5.0 | 8.0 | 0.00 | 0.00 | 0.00 | 94 | 1002.7 |
| 20260903233531 | 49 | 164 | 5.0 | 7.0 | 0.00 | 0.00 | 0.00 | 95 | 1002.8 |
| 20260903232548 | 49 | 154 | 4.0 | 6.0 | 0.00 | 0.00 | 0.00 | 95 | 1002.8 |
| 20260903231547 | 50 | 162 | 5.0 | 9.0 | 0.00 | 0.00 | 0.00 | 94 | 1002.9 |
| 20260903230526 | 50 | 171 | 5.0 | 9.0 | 0.00 | 0.00 | 0.00 | 92 | 1003.1 |
| 20260903225525 | 50 | 179 | 4.0 | 8.0 | 0.00 | 0.00 | 0.00 | 92 | 1003.2 |
| 20260903224524 | 50 | 178 | 5.0 | 8.0 | 0.00 | 0.00 | 0.00 | 92 | 1003.2 |
| 20260903223523 | 49 | 171 | 5.0 | 8.0 | 0.00 | 0.00 | 0.00 | 92 | 1003.3 |
| 20260903222522 | 51 | 189 | 5.0 | 10.0 | 0.00 | 0.00 | 0.00 | 90 | 1003.3 |
| 20260903221521 | 50 | 191 | 5.0 | 10.0 | 0.00 | 0.00 | 0.00 | 90 | 1003.4 |
| 20260903220520 | 51 | 195 | 5.0 | 10.0 | 0.00 | 0.00 | 0.00 | 89 | 1003.4 |
| 20260903215519 | 51 | 201 | 7.0 | 10.0 | 0.00 | 0.00 | 0.00 | 88 | 1003.5 |
| 20260903214518 | 51 | 185 | 5.0 | 10.0 | 0.00 | 0.00 | 0.00 | 88 | 1003.5 |
| 20260903213517 | 50 | 185 | 5.0 | 9.0 | 0.00 | 0.00 | 0.00 | 87 | 1003.6 |
| 20260903212516 | 51 | 195 | 5.0 | 9.0 | 0.00 | 0.00 | 0.00 | 86 | 1003.7 |
| 20260903211545 | 51 | 189 | 5.0 | 9.0 | 0.00 | 0.00 | 0.00 | 86 | 1003.7 |
| 20260903210544 | 50 | 176 | 4.0 | 8.0 | 0.00 | 0.00 | 0.00 | 87 | 1003.8 |
| 20260903205543 | 51 | 194 | 6.0 | 10.0 | 0.00 | 0.00 | 0.00 | 85 | 1003.9 |
| 20260903204602 | 50 | 180 | 5.0 | 10.0 | 0.00 | 0.00 | 0.00 | 86 | 1003.9 |
| 20260903203541 | 50 | 170 | 4.0 | 7.0 | 0.00 | 0.00 | 0.00 | 86 | 1003.9 |
| 20260903202600 | 50 | 164 | 4.0 | 7.0 | 0.00 | 0.00 | 0.00 | 86 | 1004.0 |
| 20260903201559 | 50 | 178 | 3.0 | 7.0 | 0.00 | 0.00 | 0.00 | 84 | 1004.1 |
| 20260903200537 | 51 | 183 | 4.0 | 6.0 | 0.00 | 0.00 | 0.00 | 84 | 1004.1 |
| 20260903195537 | 51 | 188 | 4.0 | 7.0 | 0.00 | 0.00 | 0.00 | 83 | 1004.2 |
| 20260903194536 | 51 | 192 | 4.0 | 7.0 | 0.00 | 0.00 | 0.00 | 82 | 1004.3 |
| 20260903193535 | 51 | 188 | 4.0 | 7.0 | 0.00 | 0.00 | 0.00 | 82 | 1004.4 |
| 20260903192534 | 51 | 191 | 4.0 | 7.0 | 0.00 | 0.00 | 0.00 | 81 | 1004.4 |
| 20260903191533 | 52 | 193 | 4.0 | 8.0 | 0.00 | 0.00 | 0.00 | 80 | 1004.3 |
| 20260903190533 | 52 | 190 | 4.0 | 8.0 | 0.00 | 0.00 | 0.00 | 79 | 1004.3 |
| 20260903185532 | 52 | 193 | 4.0 | 8.0 | 0.00 | 0.00 | 0.00 | 78 | 1004.4 |
| 20260903184532 | 53 | 192 | 4.0 | 8.0 | 0.00 | 0.00 | 0.00 | 77 | 1004.4 |
| 20260903183530 | 53 | 192 | 4.0 | 8.0 | 0.00 | 0.00 | 0.00 | 76 | 1004.4 |
| 20260903182531 | 53 | 197 | 5.0 | 10.0 | 0.00 | 0.00 | 0.00 | 74 | 1004.4 |
| 20260903181528 | 54 | 202 | 5.0 | 9.0 | 0.00 | 0.00 | 0.00 | 74 | 1004.5 |
| 20260903180527 | 54 | 202 | 6.0 | 10.0 | 0.00 | 0.00 | 0.00 | 72 | 1004.5 |
| 20260903175527 | 55 | 211 | 7.0 | 11.0 | 0.00 | 0.00 | 0.00 | 71 | 1004.6 |
| 20260903174526 | 55 | 220 | 10.0 | 14.0 | 0.00 | 0.00 | 0.00 | 69 | 1004.6 |
| 20260903173525 | 56 | 222 | 11.0 | 18.0 | 0.00 | 0.00 | 0.00 | 68 | 1004.7 |
| 20260903172523 | 56 | 222 | 12.0 | 18.0 | 0.00 | 0.00 | 0.00 | 67 | 1004.6 |
| 20260903171521 | 56 | 218 | 11.0 | 17.0 | 0.00 | 0.00 | 0.00 | 66 | 1004.5 |
| 20260903170520 | 57 | 220 | 12.0 | 18.0 | 0.00 | 0.00 | 0.00 | 66 | 1004.5 |
| 20260903165520 | 57 | 221 | 12.0 | 19.0 | 0.00 | 0.00 | 0.00 | 68 | 1004.4 |
| 20260903164520 | 58 | 223 | 13.0 | 20.0 | 0.00 | 0.00 | 0.00 | 65 | 1004.5 |
| 20260903163518 | 58 | 226 | 13.0 | 21.0 | 0.00 | 0.00 | 0.00 | 66 | 1004.5 |
| 20260903162516 | 59 | 227 | 11.0 | 18.0 | 0.00 | 0.00 | 0.00 | 67 | 1004.4 |
| 20260903161545 | 59 | 233 | 11.0 | 20.0 | 0.00 | 0.00 | 0.00 | 67 | 1004.4 |
| 20260903160544 | 60 | 226 | 9.0 | 16.0 | 0.00 | 0.00 | 0.00 | 65 | 1004.4 |
| 20260903155543 | 61 | 233 | 12.0 | 19.0 | 0.00 | 0.00 | 0.00 | 63 | 1004.4 |
| 20260903154543 | 62 | 235 | 13.0 | 21.0 | 0.00 | 0.00 | 0.00 | 62 | 1004.4 |
| 20260903153543 | 62 | 229 | 14.0 | 21.0 | 0.00 | 0.00 | 0.00 | 61 | 1004.4 |
| 20260903152540 | 62 | 227 | 14.0 | 23.0 | 0.00 | 0.00 | 0.00 | 58 | 1004.3 |